Location: Irma
(52.9170°N, 111.2330°W)
Time: 07:25:27
(UTC-06:00)

Amateur Radio Satellites - All Passes

Search period start: 22 September 2017 06:55
Search period end: 23 September 2017 06:55
Location: Irma, 52.9170°N, 111.2330°W

Satellite Date Start Highest point End Downlink Frequencies (MHz)
Time Altitude Azimuth
CUTE-I 22 Sep 07:07:01 07:11:42 30° 94° (E) 07:16:21 437.470
ITAMSAT 1 22 Sep 07:11:37 07:15:15 20° 307° (NW) 07:18:53 435.822/435.867
BEESAT 2 22 Sep 07:13:43 07:16:18 16° 246° (WSW) 07:18:52 435.950
XW-2D 22 Sep 07:16:04 07:19:43 40° 98° (E) 07:23:18 145.860 - 145.880
KKS-1 22 Sep 07:19:10 07:19:35 10° 276° (W) 07:20:00 437.445
FO-29 22 Sep 07:27:38 07:30:21 14° 48° (NE) 07:33:00 435.910
XW-2B 22 Sep 07:28:18 07:32:04 51° 100° (E) 07:35:47 145.730 - 145.750
XW-2F 22 Sep 07:29:41 07:33:26 51° 100° (E) 07:37:08 145.980 - 146.000
RS-15 22 Sep 07:30:06 07:42:27 83° 129° (SE) 07:54:44 29.354- 29.394
HO-68 22 Sep 07:45:52 07:52:01 29° 91° (E) 07:58:07 435.675
STARS 22 Sep 07:47:03 07:48:33 12° 275° (W) 07:50:03 437.465
CUTE 1.7 + AOD 2 22 Sep 07:47:14 07:50:31 21° 91° (E) 07:53:46 437.475
XW-2C 22 Sep 07:49:31 07:53:23 88° 102° (ESE) 07:57:13 145.795 - 145.815
STRAND 1 22 Sep 07:52:00 07:57:07 85° 255° (WSW) 08:02:16 437.568
NUDT-PHONESAT 22 Sep 07:58:36 08:02:24 82° 105° (ESE) 08:06:07 437.300
CUBEBUG 2 22 Sep 07:59:01 08:02:23 19° 89° (E) 08:05:46 437.445
LilacSat-2 22 Sep 07:59:50 08:03:42 69° 286° (WNW) 08:07:30 437.200
DOVE 4 22 Sep 08:03:09 08:06:44 28° 296° (WNW) 08:10:22 437.250
UWE-3 22 Sep 08:09:53 08:12:38 15° 86° (E) 08:15:24 435.000/436.395/437.385
TIGRISAT 22 Sep 08:23:58 08:24:57 11° 49° (NE) 08:25:56 435.000
KAITUO 1B 22 Sep 08:24:33 08:28:14 52° 289° (WNW) 08:31:53 145.475/437.950
AO-7 22 Sep 08:28:44 08:34:24 21° 327° (NNW) 08:40:05 .
XW-2A 22 Sep 08:38:51 08:41:51 27° 95° (E) 08:44:50 145.665 - 145.685
CUTE-I 22 Sep 08:46:50 08:52:00 52° 294° (WNW) 08:57:10 437.470
XW-2D 22 Sep 08:50:37 08:53:43 24° 297° (WNW) 08:56:48 145.860 - 145.880
SEEDS 22 Sep 08:57:30 09:01:41 62° 101° (ESE) 09:05:49 437.485
AO-73 22 Sep 08:58:50 09:02:25 22° 90° (E) 09:05:58 145.935
Oscar 11 22 Sep 09:00:26 09:03:08 16° 88° (E) 09:05:47 .
ZACube-1 22 Sep 09:00:33 09:04:20 25° 92° (E) 09:08:07 437.345
XW-2B 22 Sep 09:03:08 09:05:56 20° 299° (WNW) 09:08:43 145.730 - 145.750
XW-2F 22 Sep 09:04:27 09:07:15 20° 299° (WNW) 09:10:01 145.980 - 146.000
FO-29 22 Sep 09:09:06 09:14:37 65° 70° (ENE) 09:19:48 435.910
CUTE 1.7 + AOD 2 22 Sep 09:22:30 09:26:39 52° 290° (WNW) 09:30:46 437.475
PRISM 22 Sep 09:24:55 09:27:55 20° 59° (ENE) 09:30:55 437.425
AAUSAT CUBESAT 2 22 Sep 09:25:07 09:29:12 57° 101° (E) 09:33:14 437.432
XW-2C 22 Sep 09:25:09 09:27:00 13° 304° (WNW) 09:28:50 145.795 - 145.815
UNISAT 6 22 Sep 09:32:33 09:36:35 37° 65° (ENE) 09:40:44 437.425
HO-68 22 Sep 09:33:14 09:40:25 75° 293° (WNW) 09:47:35 435.675
NUDT-PHONESAT 22 Sep 09:33:50 09:35:44 13° 303° (WNW) 09:37:36 437.300
STRAND 1 22 Sep 09:34:14 09:37:06 15° 274° (W) 09:40:00 437.568
CUBEBUG 2 22 Sep 09:34:48 09:39:26 69° 288° (WNW) 09:44:09 437.445
LilacSat-2 22 Sep 09:36:26 09:37:14 10° 306° (NW) 09:38:00 437.200
RS-15 22 Sep 09:44:03 09:56:09 55° 339° (NNW) 10:08:01 29.354- 29.394
UWE-3 22 Sep 09:45:01 09:49:42 86° 286° (WNW) 09:54:23 435.000/436.395/437.385
TIGRISAT 22 Sep 09:56:25 10:00:41 56° 69° (ENE) 10:05:04 435.000
O/OREOS (USA 219) 22 Sep 10:07:39 10:08:48 11° 25° (NNE) 10:09:58 437.305
XW-2A 22 Sep 10:11:34 10:14:33 27° 294° (WNW) 10:17:31 145.665 - 145.685
AO-7 22 Sep 10:21:29 10:24:08 12° 354° (N) 10:26:47 .
EO-88 22 Sep 10:27:56 10:30:12 15° 90° (E) 10:32:26 145.990 - 145.960
CUTE-I 22 Sep 10:28:45 10:30:58 13° 315° (NW) 10:33:10 437.470
SEEDS 22 Sep 10:33:58 10:36:59 20° 301° (WNW) 10:40:00 437.485
AIST 2D 22 Sep 10:33:58 10:36:28 18° 62° (ENE) 10:38:59 435.315
AO-73 22 Sep 10:34:28 10:38:59 58° 289° (WNW) 10:43:28 145.935
Oscar 11 22 Sep 10:35:25 10:39:48 74° 287° (WNW) 10:44:07 .
ZACube-1 22 Sep 10:36:25 10:40:52 51° 291° (WNW) 10:45:19 437.345
POLYITAN 1 22 Sep 10:41:51 10:44:06 14° 54° (NE) 10:46:22 437.675
EO-79 22 Sep 10:46:19 10:48:48 15° 55° (NE) 10:51:17 145.935-145.965
FO-29 22 Sep 10:55:52 11:00:13 23° 269° (W) 11:04:23 435.910
Max Valier Satellite 22 Sep 10:56:29 11:00:02 38° 98° (E) 11:03:33 145.860
QB50P2 22 Sep 10:58:34 11:01:41 20° 59° (ENE) 11:04:50 145.880/145.840
PRISM 22 Sep 10:58:48 11:02:51 58° 258° (WSW) 11:06:54 437.425
AAUSAT CUBESAT 2 22 Sep 11:01:15 11:04:19 20° 300° (WNW) 11:07:21 437.432
DELFI C3 22 Sep 11:07:53 11:11:48 66° 102° (ESE) 11:15:41 145.870
UNISAT 6 22 Sep 11:09:28 11:13:22 31° 266° (W) 11:17:23 437.425
M-CUBED/EXP-1 PRIME 22 Sep 11:12:19 11:15:03 17° 52° (NE) 11:17:39 437.505
CUBEBUG 2 22 Sep 11:13:00 11:15:17 14° 307° (NW) 11:17:35 437.445
HO-68 22 Sep 11:21:47 11:27:08 23° 315° (NW) 11:32:29 435.675
UWE-3 22 Sep 11:22:40 11:25:30 16° 305° (NW) 11:28:22 435.000/436.395/437.385
LO-87 22 Sep 11:29:57 11:31:11 11° 87° (E) 11:32:26 145.935 - 145.965
TIGRISAT 22 Sep 11:34:23 11:37:44 21° 270° (W) 11:41:09 435.000
NANOSAT C BR1 22 Sep 11:34:44 11:38:30 33° 65° (ENE) 11:42:19 145.865
O/OREOS (USA 219) 22 Sep 11:45:28 11:49:40 33° 49° (NE) 11:53:51 437.305
RS-15 22 Sep 11:59:36 12:11:30 50° 11° (NNE) 12:22:55 29.354- 29.394
EO-88 22 Sep 12:00:35 12:04:13 57° 288° (WNW) 12:07:48 145.990 - 145.960
DUCHIFAT 1 22 Sep 12:03:38 12:07:43 54° 70° (ENE) 12:11:51 145.980
AIST 2D 22 Sep 12:05:55 12:09:21 48° 260° (W) 12:12:51 435.315
AO-7 22 Sep 12:09:18 12:13:34 15° 22° (NNE) 12:17:50 .
YUBILEINY 22 Sep 12:10:15 12:17:37 32° 80° (E) 12:24:58 435.215
Gurwin Techsat 1B 22 Sep 12:11:25 12:14:17 15° 48° (NE) 12:17:09 435.225
AO-73 22 Sep 12:12:48 12:14:18 11° 310° (NW) 12:15:49 145.935
Oscar 11 22 Sep 12:13:09 12:15:12 13° 307° (NW) 12:17:13 .
POLYITAN 1 22 Sep 12:15:00 12:19:14 85° 74° (ENE) 12:23:31 437.675
ZACube-1 22 Sep 12:15:27 12:16:10 10° 311° (NW) 12:16:52 437.345
EO-79 22 Sep 12:19:45 12:23:59 87° 262° (W) 12:28:14 145.935-145.965
ESTCUBE 1 22 Sep 12:29:48 12:33:56 34° 96° (E) 12:38:02 437.505/2401.250
Max Valier Satellite 22 Sep 12:30:39 12:33:43 24° 297° (WNW) 12:36:45 145.860
QB50P2 22 Sep 12:32:56 12:37:06 61° 258° (WSW) 12:41:20 145.880/145.840
Oscar 19 22 Sep 12:36:02 12:40:19 27° 58° (ENE) 12:44:38 437.125/150
DELFI C3 22 Sep 12:43:35 12:46:09 17° 301° (WNW) 12:48:42 145.870
M-CUBED/EXP-1 PRIME 22 Sep 12:44:52 12:49:06 77° 250° (WSW) 12:53:02 437.505
BUGSAT 1 22 Sep 12:44:57 12:48:45 42° 68° (ENE) 12:52:38 437.445
LO-87 22 Sep 13:01:30 13:05:06 77° 285° (WNW) 13:08:42 145.935 - 145.965
VELOX 1 22 Sep 13:05:42 13:08:40 18° 89° (E) 13:11:38 145.980
NANOSAT C BR1 22 Sep 13:10:25 13:14:13 33° 264° (W) 13:18:04 145.865
SPROUT 22 Sep 13:15:13 13:18:55 27° 94° (E) 13:22:36 437.525
O/OREOS (USA 219) 22 Sep 13:24:50 13:29:13 44° 249° (WSW) 13:33:34 437.305
DUCHIFAT 1 22 Sep 13:40:35 13:43:43 20° 269° (W) 13:46:52 145.980
ITAMSAT 1 22 Sep 13:41:22 13:42:52 11° 44° (NE) 13:44:21 435.822/435.867
Gurwin Techsat 1B 22 Sep 13:48:03 13:53:17 63° 69° (ENE) 13:58:33 435.225
POLYITAN 1 22 Sep 13:53:33 13:55:39 13° 274° (W) 13:57:45 437.675
AO-7 22 Sep 13:56:46 14:04:01 35° 47° (NE) 14:11:15 .
EO-79 22 Sep 13:58:45 14:00:25 12° 274° (W) 14:02:05 145.935-145.965
YUBILEINY 22 Sep 14:05:01 14:13:43 74° 284° (WNW) 14:22:28 435.215
ESTCUBE 1 22 Sep 14:06:38 14:10:46 36° 295° (WNW) 14:14:51 437.505/2401.250
RS-15 22 Sep 14:13:33 14:25:51 80° 43° (NE) 14:37:28 29.354- 29.394
Oscar 19 22 Sep 14:14:09 14:19:18 62° 258° (WSW) 14:24:30 437.125/150
UKube-1 22 Sep 14:15:04 14:17:47 16° 89° (E) 14:20:31 .
DX 1 22 Sep 14:18:33 14:22:09 25° 94° (E) 14:25:44 434.975-435.025
BUGSAT 1 22 Sep 14:21:00 14:24:18 24° 267° (W) 14:27:38 437.445
M-CUBED/EXP-1 PRIME 22 Sep 14:23:06 14:24:04 11° 266° (W) 14:25:00 437.505
NO-84 22 Sep 14:25:30 14:28:19 20° 139° (SE) 14:30:58 435.350 FM
LO-87 22 Sep 14:37:22 14:37:52 10° 305° (NW) 14:38:22 145.935 - 145.965
PCSat 22 Sep 14:40:19 14:42:51 13° 103° (ESE) 14:45:22 145.827
VELOX 1 22 Sep 14:41:13 14:45:35 68° 289° (WNW) 14:49:57 145.980
50 SAT 22 Sep 14:42:37 14:45:51 51° 100° (E) 14:49:05 437.505
SPROUT 22 Sep 14:50:55 14:54:57 41° 293° (WNW) 14:58:59 437.525
ITAMSAT 1 22 Sep 15:16:15 15:21:10 47° 65° (ENE) 15:26:08 435.822/435.867
MOZHAYETS 4 22 Sep 15:18:46 15:20:14 11° 84° (E) 15:21:41
SO-50 22 Sep 15:23:36 15:27:47 39° 123° (ESE) 15:31:59 436.795
Gurwin Techsat 1B 22 Sep 15:29:20 15:33:40 25° 269° (W) 15:38:01 435.225
ITUPSAT 1 22 Sep 15:34:38 15:37:31 16° 87° (E) 15:40:24 437.325
AO-7 22 Sep 15:47:47 15:56:09 81° 251° (WSW) 16:04:32 .
UKube-1 22 Sep 15:50:00 15:54:19 72° 288° (WNW) 15:58:35 .
DX 1 22 Sep 15:54:23 15:58:33 46° 293° (WNW) 16:02:41 434.975-435.025
Oscar 19 22 Sep 15:58:24 15:59:42 11° 278° (W) 16:01:01 437.125/150
DOVE 4 22 Sep 16:01:35 16:03:37 13° 55° (NE) 16:05:38 437.250
NO-84 22 Sep 16:01:47 16:05:22 76° 157° (SSE) 16:08:40 435.350 FM
YUBILEINY 22 Sep 16:05:41 16:12:18 23° 310° (NW) 16:18:57 435.215
BEESAT 22 Sep 16:11:17 16:15:34 31° 95° (E) 16:19:49 436.000
50 SAT 22 Sep 16:15:59 16:18:02 16° 300° (WNW) 16:20:05 437.505
VELOX 1 22 Sep 16:19:25 16:21:15 13° 309° (NW) 16:23:06 145.980
PCSat 22 Sep 16:19:52 16:25:15 66° 123° (ESE) 16:30:40 145.827
RS-15 22 Sep 16:26:37 16:37:28 43° 250° (WSW) 16:47:49 29.354- 29.394
HO-68 22 Sep 16:37:54 16:41:26 15° 34° (NNE) 16:44:59 435.675
MOZHAYETS 4 22 Sep 16:53:34 16:58:15 73° 103° (ESE) 17:02:53
ITAMSAT 1 22 Sep 16:56:11 17:00:48 33° 265° (W) 17:05:28 435.822/435.867
CUTE-I 22 Sep 16:57:08 17:00:45 19° 52° (NE) 17:04:21 437.470
SO-50 22 Sep 17:03:51 17:08:13 46° 324° (NW) 17:12:36 436.795
XW-2C 22 Sep 17:04:09 17:06:14 14° 57° (ENE) 17:08:19 145.795 - 145.815
ITUPSAT 1 22 Sep 17:11:10 17:16:01 87° 287° (WNW) 17:20:51 437.325
NUDT-PHONESAT 22 Sep 17:11:49 17:13:25 12° 56° (NE) 17:15:02 437.300
LilacSat-2 22 Sep 17:14:15 17:16:56 18° 60° (ENE) 17:19:38 437.200
CUBESAT XI-V 22 Sep 17:16:47 17:20:59 32° 95° (E) 17:25:08 437.345
KKS-1 22 Sep 17:23:37 17:26:09 15° 88° (E) 17:28:42 437.445
UKube-1 22 Sep 17:27:41 17:29:36 13° 308° (NW) 17:31:31 .
DOVE 4 22 Sep 17:36:19 17:40:43 81° 74° (ENE) 17:44:57 437.250
KAITUO 1B 22 Sep 17:36:50 17:39:44 21° 62° (ENE) 17:42:38 145.475/437.950
NO-84 22 Sep 17:39:30 17:42:52 57° 357° (N) 17:45:58 435.350 FM
AO-7 22 Sep 17:44:00 17:50:13 23° 272° (W) 17:56:28 .
BEESAT 22 Sep 17:48:55 17:53:29 44° 294° (WNW) 17:58:00 436.000
STARS 22 Sep 17:51:54 17:53:44 12° 86° (E) 17:55:34 437.465
XW-2D 22 Sep 18:02:35 18:06:17 47° 70° (ENE) 18:10:01 145.860 - 145.880
PCSat 22 Sep 18:04:03 18:09:02 36° 326° (NW) 18:14:03 145.827
XW-2B 22 Sep 18:14:47 18:18:35 60° 72° (ENE) 18:22:25 145.730 - 145.750
XW-2F 22 Sep 18:15:45 18:19:32 59° 72° (ENE) 18:23:20 145.980 - 146.000
HO-68 22 Sep 18:20:49 18:27:25 42° 57° (ENE) 18:34:03 435.675
SEEDS 22 Sep 18:21:11 18:23:37 15° 56° (NE) 18:26:02 437.485
MOZHAYETS 4 22 Sep 18:31:33 18:34:56 20° 303° (WNW) 18:38:18
CUTE-I 22 Sep 18:34:47 18:40:05 84° 73° (ENE) 18:45:27 437.470
XW-2C 22 Sep 18:36:02 18:39:53 81° 257° (WSW) 18:43:46 145.795 - 145.815
NUDT-PHONESAT 22 Sep 18:42:55 18:46:42 89° 68° (ENE) 18:50:29 437.300
CUTE 1.7 + AOD 2 22 Sep 18:45:12 18:49:02 32° 65° (ENE) 18:52:53 437.475
SO-50 22 Sep 18:46:13 18:49:41 21° 348° (NNW) 18:53:09 436.795
LilacSat-2 22 Sep 18:47:00 18:50:50 59° 259° (W) 18:54:43 437.200
AAUSAT CUBESAT 2 22 Sep 18:47:51 18:49:51 13° 55° (NE) 18:51:50 437.432
ITUPSAT 1 22 Sep 18:50:04 18:53:12 17° 307° (NW) 18:56:20 437.325
CUBESAT XI-V 22 Sep 18:54:06 18:58:27 39° 294° (WNW) 19:02:44 437.345
KKS-1 22 Sep 18:58:51 19:03:19 82° 287° (WNW) 19:07:46 437.445
CUBEBUG 2 22 Sep 19:02:46 19:06:29 29° 63° (ENE) 19:10:21 437.445
KAITUO 1B 22 Sep 19:09:47 19:13:28 46° 261° (W) 19:17:10 145.475/437.950
UWE-3 22 Sep 19:12:20 19:15:50 24° 60° (ENE) 19:19:26 435.000/436.395/437.385
XW-2A 22 Sep 19:15:36 19:18:28 25° 65° (ENE) 19:21:22 145.665 - 145.685
DOVE 4 22 Sep 19:16:41 19:18:58 14° 272° (W) 19:21:14 437.250
NO-84 22 Sep 19:17:10 19:20:24 88° 19° (NNE) 19:23:24 435.350 FM
STARS 22 Sep 19:26:21 19:30:47 84° 106° (ESE) 19:35:13 437.465
XW-2D 22 Sep 19:37:49 19:40:42 20° 269° (W) 19:43:36 145.860 - 145.880
PCSat 22 Sep 19:50:08 19:53:59 19° 351° (N) 19:57:51 145.827
XW-2B 22 Sep 19:50:42 19:53:09 16° 271° (W) 19:55:36 145.730 - 145.750
XW-2F 22 Sep 19:51:34 19:54:01 16° 271° (W) 19:56:29 145.980 - 146.000
SEEDS 22 Sep 19:54:26 19:58:42 89° 255° (WSW) 20:02:58 437.485
STRAND 1 22 Sep 19:56:50 20:00:46 22° 90° (E) 20:04:42 437.568
AO-73 22 Sep 19:59:44 20:03:40 33° 64° (ENE) 20:07:41 145.935
Oscar 11 22 Sep 20:00:30 20:04:08 26° 62° (ENE) 20:07:46 .
ZACube-1 22 Sep 20:01:46 20:05:48 38° 66° (ENE) 20:09:57 437.345
HO-68 22 Sep 20:08:02 20:15:02 56° 259° (W) 20:22:06 435.675
CUTE-I 22 Sep 20:17:13 20:20:50 18° 272° (W) 20:24:28 437.470
NUDT-PHONESAT 22 Sep 20:20:16 20:21:09 11° 274° (W) 20:22:03 437.300
AAUSAT CUBESAT 2 22 Sep 20:20:28 20:24:38 81° 75° (ENE) 20:28:49 437.432
CUTE 1.7 + AOD 2 22 Sep 20:20:54 20:24:51 35° 264° (W) 20:28:48 437.475
DELFI C3 22 Sep 20:26:29 20:28:17 13° 55° (NE) 20:30:04 145.870
SO-50 22 Sep 20:28:08 20:31:36 21° 12° (NNE) 20:35:05 436.795
KKS-1 22 Sep 20:36:43 20:39:13 15° 307° (NW) 20:41:42 437.445
CUBEBUG 2 22 Sep 20:38:58 20:43:00 40° 264° (W) 20:47:12 437.445
UWE-3 22 Sep 20:47:46 20:52:00 52° 261° (W) 20:56:24 435.000/436.395/437.385
XW-2A 22 Sep 20:48:04 20:51:07 29° 264° (W) 20:54:11 145.665 - 145.685
AO-85 22 Sep 20:51:50 20:53:44 13° 112° (ESE) 20:55:39 145.980
NO-84 22 Sep 20:54:57 20:57:25 22° 220° (SW) 20:59:46 435.350 FM
BEESAT 3 22 Sep 21:03:39 21:07:27 42° 124° (SE) 21:11:18 437.485
STARS 22 Sep 21:03:46 21:06:35 17° 305° (NW) 21:09:23 437.465
BEESAT 2 22 Sep 21:09:40 21:12:33 19° 116° (ESE) 21:15:28 435.950
EO-88 22 Sep 21:11:15 21:13:48 18° 61° (ENE) 21:16:23 145.990 - 145.960
SEEDS 22 Sep 21:33:11 21:35:01 12° 274° (W) 21:36:53 437.485
PCSat 22 Sep 21:35:10 21:39:19 22° 17° (NNE) 21:43:29 145.827
STRAND 1 22 Sep 21:35:20 21:40:28 69° 290° (WNW) 21:45:35 437.568
AO-73 22 Sep 21:35:50 21:39:51 36° 264° (W) 21:44:00 145.935
Oscar 11 22 Sep 21:35:52 21:40:04 46° 261° (W) 21:44:18 .
ZACube-1 22 Sep 21:38:15 21:42:09 31° 266° (W) 21:46:09 437.345
Max Valier Satellite 22 Sep 21:40:41 21:44:12 42° 69° (ENE) 21:47:46 145.860
FO-29 22 Sep 21:55:35 22:00:22 31° 95° (E) 22:05:29 435.910
DELFI C3 22 Sep 21:58:27 22:02:25 85° 73° (ENE) 22:06:23 145.870
AAUSAT CUBESAT 2 22 Sep 21:58:32 22:00:39 14° 273° (W) 22:02:47 437.432
ESTCUBE 1 22 Sep 22:01:21 22:03:14 12° 51° (NE) 22:05:06 437.505/2401.250
HO-68 22 Sep 22:01:42 22:04:28 12° 281° (W) 22:07:13 435.675
Tancredo 1 22 Sep 22:02:50 22:05:21 34° 159° (SSE) 22:07:51 437.200
ISS 22 Sep 22:03:46 22:05:40 15° 142° (SE) 22:07:35 437.550
SO-50 22 Sep 22:08:41 22:13:05 45° 36° (NE) 22:17:31 436.795
YUBILEINY 22 Sep 22:11:00 22:17:52 25° 52° (NE) 22:24:44 435.215
LO-87 22 Sep 22:11:42 22:13:25 13° 58° (ENE) 22:15:08 145.935 - 145.965
AO-85 22 Sep 22:29:32 22:33:26 87° 138° (SE) 22:37:29 145.980
PRISM 22 Sep 22:35:24 22:37:11 12° 87° (E) 22:38:57 437.425
BEESAT 3 22 Sep 22:41:17 22:45:05 38° 325° (NW) 22:48:54 437.485
EO-88 22 Sep 22:43:32 22:47:08 53° 260° (W) 22:50:46 145.990 - 145.960
nSIGHT-1 22 Sep 22:43:55 22:46:41 26° 151° (SSE) 22:49:28 .
BEESAT 2 22 Sep 22:45:50 22:49:52 73° 315° (NW) 22:53:58 435.950
UNISAT 6 22 Sep 22:54:03 22:58:23 37° 96° (E) 23:02:44 437.425
Max Valier Satellite 22 Sep 23:15:22 23:18:14 21° 268° (W) 23:21:07 145.860
STRAND 1 22 Sep 23:15:52 23:18:48 15° 310° (NW) 23:21:44 437.568
TIGRISAT 22 Sep 23:17:54 23:22:29 55° 100° (E) 23:27:06 435.000
PCSat 22 Sep 23:18:41 23:23:59 50° 41° (NE) 23:29:14 145.827
ESTCUBE 1 22 Sep 23:34:42 23:39:12 64° 71° (ENE) 23:43:42 437.505/2401.250
DELFI C3 22 Sep 23:36:12 23:37:46 12° 274° (W) 23:39:19 145.870
Tancredo 1 22 Sep 23:36:59 23:39:41 67° 178° (S) 23:42:22 437.200
ISS 22 Sep 23:38:25 23:41:35 46° 161° (SSE) 23:44:46 437.550
FO-29 22 Sep 23:40:36 23:45:43 50° 294° (WNW) 23:51:16 435.910
LO-87 22 Sep 23:42:49 23:46:20 75° 256° (WSW) 23:49:55 145.935 - 145.965
SO-50 22 Sep 23:49:15 23:53:33 41° 236° (WSW) 23:57:54 436.795
EO-79 23 Sep 00:00:38 00:01:34 11° 84° (E) 00:02:31 145.935-145.965
YUBILEINY 23 Sep 00:07:31 00:16:18 79° 78° (ENE) 00:25:04 435.215
VELOX 1 23 Sep 00:08:09 00:12:05 33° 64° (ENE) 00:16:02 145.980
PRISM 23 Sep 00:08:58 00:13:03 85° 288° (WNW) 00:17:07 437.425
AO-85 23 Sep 00:11:03 00:14:20 24° 336° (NNW) 00:17:46 145.980
QB50P2 23 Sep 00:12:34 00:15:08 15° 88° (E) 00:17:42 145.880/145.840
SPROUT 23 Sep 00:13:54 00:17:56 44° 67° (ENE) 00:21:59 437.525
nSIGHT-1 23 Sep 00:19:28 00:22:41 64° 171° (S) 00:25:55 .
BEESAT 3 23 Sep 00:20:56 00:23:39 17° 348° (NNW) 00:26:21 437.485
BEESAT 2 23 Sep 00:25:01 00:28:15 22° 338° (NNW) 00:31:30 435.950
UNISAT 6 23 Sep 00:30:51 00:35:05 36° 295° (WNW) 00:39:21 437.425
NANOSAT C BR1 23 Sep 00:48:11 00:51:49 26° 94° (E) 00:55:25 145.865
TIGRISAT 23 Sep 00:55:06 00:58:54 26° 299° (WNW) 01:02:44 435.000
AIST 2D 23 Sep 00:57:46 01:01:20 88° 102° (ESE) 01:04:51 435.315
PCSat 23 Sep 01:02:16 01:07:21 41° 243° (WSW) 01:12:24 145.827
Tancredo 1 23 Sep 01:11:28 01:14:02 40° 198° (SSW) 01:16:37 437.200
ESTCUBE 1 23 Sep 01:13:08 01:16:26 19° 270° (W) 01:19:44 437.505/2401.250
ISS 23 Sep 01:14:37 01:17:55 72° 179° (S) 01:21:13 437.550
UKube-1 23 Sep 01:14:40 01:18:25 30° 63° (ENE) 01:22:11 .
DUCHIFAT 1 23 Sep 01:16:51 01:20:57 42° 99° (E) 01:25:00 145.980
50 SAT 23 Sep 01:17:46 01:20:57 47° 71° (ENE) 01:24:10 437.505
DX 1 23 Sep 01:19:23 01:23:32 46° 67° (ENE) 01:27:42 434.975-435.025
FO-29 23 Sep 01:28:03 01:29:47 12° 315° (NW) 01:31:32 435.910
POLYITAN 1 23 Sep 01:29:15 01:33:33 69° 102° (ESE) 01:37:51 437.675
EO-79 23 Sep 01:33:48 01:38:06 76° 104° (ESE) 01:42:23 145.935-145.965
VELOX 1 23 Sep 01:44:26 01:48:30 36° 263° (W) 01:52:36 145.980
PRISM 23 Sep 01:45:42 01:47:43 14° 306° (NW) 01:49:43 437.425
QB50P2 23 Sep 01:47:09 01:51:27 76° 286° (WNW) 01:55:43 145.880/145.840
BEESAT 23 Sep 01:48:28 01:50:59 14° 50° (NE) 01:53:31 436.000
SPROUT 23 Sep 01:50:29 01:54:00 25° 267° (W) 01:57:34 437.525
M-CUBED/EXP-1 PRIME 23 Sep 01:52:21 01:55:06 22° 100° (E) 01:57:45 437.505
AO-85 23 Sep 01:53:28 01:56:04 16° 0° (N) 01:58:46 145.980
BUGSAT 1 23 Sep 01:55:30 01:59:18 32° 96° (E) 02:03:06 437.445
nSIGHT-1 23 Sep 01:55:41 01:58:55 62° 191° (S) 02:02:09 .
Gurwin Techsat 1B 23 Sep 01:59:11 02:02:19 16° 86° (E) 02:05:25 435.225
BEESAT 3 23 Sep 01:59:56 02:02:37 17° 11° (NNE) 02:05:17 437.485
BEESAT 2 23 Sep 02:04:50 02:07:20 15° 1° (N) 02:09:49 435.950
YUBILEINY 23 Sep 02:05:06 02:12:17 30° 281° (W) 02:19:29 435.215
Oscar 19 23 Sep 02:19:40 02:24:13 30° 94° (E) 02:28:43 437.125/150
NANOSAT C BR1 23 Sep 02:23:38 02:27:40 42° 293° (WNW) 02:31:42 145.865
MOZHAYETS 4 23 Sep 02:25:16 02:28:54 23° 59° (ENE) 02:32:34
AIST 2D 23 Sep 02:32:41 02:33:56 12° 303° (WNW) 02:35:11 435.315
ITUPSAT 1 23 Sep 02:46:32 02:50:51 36° 63° (ENE) 02:55:14 437.325
Tancredo 1 23 Sep 02:47:01 02:48:02 12° 216° (SW) 02:49:03 437.200
UKube-1 23 Sep 02:50:19 02:54:21 38° 262° (W) 02:58:24 .
ISS 23 Sep 02:51:04 02:54:13 41° 201° (SSW) 02:57:21 437.550
CUBESAT XI-V 23 Sep 02:51:37 02:53:36 13° 51° (NE) 02:55:35 437.345
50 SAT 23 Sep 02:51:44 02:53:43 15° 269° (W) 02:55:43 437.505
DUCHIFAT 1 23 Sep 02:52:51 02:56:27 27° 298° (WNW) 03:00:03 145.980
DX 1 23 Sep 02:56:21 02:59:56 25° 267° (W) 03:03:32 434.975-435.025
POLYITAN 1 23 Sep 03:05:53 03:08:54 19° 302° (WNW) 03:11:55 437.675
EO-79 23 Sep 03:10:32 03:13:22 17° 303° (WNW) 03:16:12 145.935-145.965
BEESAT 23 Sep 03:23:12 03:27:56 70° 71° (ENE) 03:32:44 436.000
QB50P2 23 Sep 03:24:31 03:26:32 13° 307° (NW) 03:28:32 145.880/145.840
M-CUBED/EXP-1 PRIME 23 Sep 03:26:34 03:29:40 32° 301° (WNW) 03:32:39 437.505
BUGSAT 1 23 Sep 03:30:52 03:34:40 34° 295° (WNW) 03:38:30 437.445
nSIGHT-1 23 Sep 03:32:11 03:34:54 24° 210° (SSW) 03:37:37 .
AO-85 23 Sep 03:34:18 03:37:47 25° 25° (NNE) 03:41:28 145.980
BEESAT 3 23 Sep 03:37:26 03:41:13 37° 34° (NE) 03:44:56 437.485
Gurwin Techsat 1B 23 Sep 03:37:43 03:43:06 84° 105° (ESE) 03:48:26 435.225
O/OREOS (USA 219) 23 Sep 03:42:38 03:47:06 65° 115° (ESE) 03:51:38 437.305
BEESAT 2 23 Sep 03:42:59 03:46:22 24° 25° (NNE) 03:49:43 435.950
AO-7 23 Sep 03:43:09 03:49:32 24° 88° (E) 03:55:51 .
Oscar 19 23 Sep 03:58:47 04:03:47 50° 294° (WNW) 04:08:45 437.125/150
MOZHAYETS 4 23 Sep 04:01:08 04:05:43 61° 259° (W) 04:10:21
ITUPSAT 1 23 Sep 04:24:12 04:28:41 39° 263° (W) 04:33:11 437.325
CUBESAT XI-V 23 Sep 04:25:27 04:30:06 62° 70° (ENE) 04:34:46 437.345
KKS-1 23 Sep 04:26:47 04:30:36 29° 62° (ENE) 04:34:26 437.445
ISS 23 Sep 04:28:34 04:30:04 13° 219° (SW) 04:31:34 437.550
RS-15 23 Sep 04:47:12 04:56:07 25° 99° (E) 05:05:00 29.354- 29.394
STARS 23 Sep 04:53:20 04:56:52 24° 60° (ENE) 05:00:23 437.465
ITAMSAT 1 23 Sep 05:01:51 05:06:59 56° 101° (ESE) 05:12:06 435.822/435.867
BEESAT 23 Sep 05:02:48 05:06:14 19° 270° (W) 05:09:40 436.000
AO-85 23 Sep 05:14:26 05:18:44 83° 46° (NE) 05:23:22 145.980
BEESAT 3 23 Sep 05:15:02 05:18:52 43° 235° (SW) 05:22:36 437.485
Gurwin Techsat 1B 23 Sep 05:18:32 05:22:28 22° 306° (NW) 05:26:24 435.225
BEESAT 2 23 Sep 05:20:33 05:24:39 86° 43° (NE) 05:28:41 435.950
O/OREOS (USA 219) 23 Sep 05:23:09 05:26:56 25° 317° (NW) 05:30:44 437.305
DOVE 4 23 Sep 05:29:56 05:31:52 13° 87° (E) 05:33:49 437.250
AO-7 23 Sep 05:35:10 05:43:32 84° 111° (ESE) 05:51:51 .
Oscar 19 23 Sep 05:40:07 05:42:00 12° 315° (NW) 05:43:53 437.125/150
STRAND 1 23 Sep 05:43:00 05:45:08 13° 47° (NE) 05:47:15 437.568
KKS-1 23 Sep 06:02:50 06:07:02 42° 261° (W) 06:11:16 437.445
CUBESAT XI-V 23 Sep 06:04:18 06:07:53 21° 270° (W) 06:11:28 437.345
LilacSat-2 23 Sep 06:16:17 06:17:14 11° 85° (E) 06:18:10 437.200
STARS 23 Sep 06:28:42 06:32:57 51° 259° (W) 06:37:14 437.465
KAITUO 1B 23 Sep 06:36:14 06:37:49 12° 87° (E) 06:39:22 145.475/437.950
ITAMSAT 1 23 Sep 06:41:46 06:46:13 29° 301° (WNW) 06:50:39 435.822/435.867
CUTE-I 23 Sep 06:46:09 06:50:11 21° 89° (E) 06:54:12 437.470
